SCP
0 0 0 0 0 0 0 0 0 0 0 0 0 0 0 0 0 0 0 0 0 0 0 0 0 0 0 0 0 0 0 0 0 0 0 0 0 0 0 0 0 0 0 0
0 0 0 0 0 0 0 0 0 0 0 0 0 0 0 0 0 0 0 0 0 0 0 0 0 0 0 0 0 0 0 0 0 0 0 0 0 0 0 0 0 0 0 0
0 0 0 0 0 0 0 0 0 0 0 0 0 0 0 0 0 0 0 0 0 0 0 0 0 0 0 0 0 0 0 0 0 0 0 0 0 0 0 0 0 0 0 0
0 0 0 0 0 0 0 0 0 0 0 0 0 0 0 0 0 0 0 0 0 0 0 0 0 0 0 0 0 0 0 0 0 0 0 0 0 0 0 0 0 0 0 0
0 0 0 0 0 0 0 0 0 0 0 0 0 0 0 0 0 0 0 0 0 0 0 0 0 0 0 0 0 0 0 0 0 0 0 0 0 0 0 0 0 0 0 0
0 0 0 0 0 0 0 0 0 0 0 0 0 0 0 0 0 0 0 0 0 0 0 0 0 0 0 0 0 0 0 0 0 0 0 0 0 0 0 0 0 0 0 0
0 0 0 0 0 0 0 0 0 0 0 0 0 0 0 0 0 0 0 0 0 0 0 0 0 0 0 0 0 0 0 0 0 0 0 0 0 0 0 0 0 0 0 0
0 0 0 0 0 0 0 0 0 0 0 0 0 0 0 0 0 0 0 0 0 0 0 0 0 0 0 0 0 0 0 0 0 0 0 0 0 0 0 0 0 0 0 0
0 0 0 0 0 0 0 0 0 0 0 0 0 0 0 0 0 0 0 0 0 0 0 0 0 0 0 0 0 0 0 0 0 0 0 0 0 0 0 0 0 0 0 0
0 0 0 0 0 0 0 0 0 0 0 0 0 0 0 0 0 0 0 0 0 0 0 0 0 0 0 0 0 0 0 0 0 0 0 0 0 0 0 0 0 0 0 0
0 0 0 0 0 0 0 0 0 0 0 0 0 0 0 0 0 0 0 0 0 0 0 0 0 0 0 0 0 0 0 0 0 0 0 0 0 0 0 0 0 0 0 0
0 0 0 0 0 0 0 0 0 0 0 0 0 0 0 0 0 0 0 0 0 0 0 0 0 0 0 0 0 0 0 0 0 0 0 0 0 0 0 0 0 0 0 0
0 0 0 0 0 0 0 0 0 0 0 0 0 0 0 0 0 0 0 0 0 0 0 0 0 0 0 0 0 0 0 0 0 0 0 0 0 0 0 0 0 0 0 0
0 0 0 0 0 0 0 0 0 0 0 0 0 0 0 0 0 0 0 0 0 0 0 0 0 0 0 0 0 0 0 0 0 0 0 0 0 0 0 0 0 0 0 0
0 0 0 0 0 0 0 0 0 0 0 0 0 0 0 0 0 0 0 0 0 0 0 0 0 0 0 0 0 0 0 0 0 0 0 0 0 0 0 0 0 0 0 0
0 0 0 0 0 0 0 0 0 0 0 0 0 0 0 0 0 0 0 0 0 0 0 0 0 0 0 0 0 0 0 0 0 0 0 0 0 0 0 0 0 0 0 0
0 0 0 0 0 0 0 0 0 0 0 0 0 0 0 0 0 0 0 0 0 0 0 0 0 0 0 0 0 0 0 0 0 0 0 0 0 0 0 0 0 0 0 0
0 0 0 0 0 0 0 0 0 0 0 0 0 0 0 0 0 0 0 0 0 0 0 0 0 0 0 0 0 0 0 0 0 0 0 0 0 0 0 0 0 0 0 0
0 0 0 0 0 0 0 0 0 0 0 0 0 0 0 0 0 0 0 0 0 0 0 0 0 0 0 0 0 0 0 0 0 0 0 0 0 0 0 0 0 0 0 0
0 0 0 0 0 0 0 0 0 0 0 0 0 0 0 0 0 0 0 0 0 0 0 0 0 0 0 0 0 0 0 0 0 0 0 0 0 0 0 0 0 0 0 0
0 0 0 0 0 0 0 0 0 0 0 0 0 0 0 0 0 0 0 0 0 0 0 0 0 0 0 0 0 0 0 0 0 0 0 0 0 0 0 0 0 0 0 0
0 0 0 0 0 0 0 0 0 0 0 0 0 0 0 0 0 0 0 0 0 0 0 0 0 0 0 0 0 0 0 0 0 0 0 0 0 0 0 0 0 0 0 0
0 0 0 0 0 0 0 0 0 0 0 0 0 0 0 0 0 0 0 0 0 0 0 0 0 0 0 0 0 0 0 0 0 0 0 0 0 0 0 0 0 0 0 0
0 0 0 0 0 0 0 0 0 0 0 0 0 0 0 0 0 0 0 0 0 0 0 0 0 0 0 0 0 0 0 0 0 0 0 0 0 0 0 0 0 0 0 0
0 0 0 0 0 0 0 0 0 0 0 0 0 0 0 0 0 0 0 0 0 0 0 0 0 0 0 0 0 0 0 0 0 0 0 0 0 0 0 0 0 0 0 0
0 0 0 0 0 0 0 0 0 0 0 0 0 0 0 0 0 0 0 0 0 0 0 0 0 0 0 0 0 0 0 0 0 0 0 0 0 0 0 0 0 0 0 0
0 0 0 0 0 0 0 0 0 0 0 0 0 0 0 0 0 0 0 0 0 0 0 0 0 0 0 0 0 0 0 0 0 0 0 0 0 0 0 0 0 0 0 0
Wind_Speed
5 4 3 6 7 7 9 9 9 10 11 13 9 7 6 5 4 5 5 5 5 4 3 3 2 2 2 2 1 1 1 2 2 2 2 1 1 1 1 1 1 1 1 1
4 3 4 7 9 10 11 10 11 11 16 11 7 4 5 5 5 6 6 6 5 4 4 3 3 3 2 2 2 2 2 2 2 2 1 2 1 1 1 1 1 1 1 1
4 3 4 9 10 10 8 8 9 13 13 5 4 5 6 7 6 7 6 5 5 4 4 4 3 3 2 2 2 2 2 2 2 2 2 2 2 2 2 2 1 1 1 1
1 1 7 9 2 6 7 8 8 8 8 6 6 6 6 6 5 5 4 4 4 3 3 2 2 2 2 2 2 2 2 2 2 2 3 2 2 2 2 2 2 2 2 2
2 3 9 9 3 3 4 8 7 9 8 6 4 4 5 4 3 4 4 4 3 3 2 2 2 2 2 1 2 2 2 3 3 3 3 3 3 3 2 2 2 2 2 2
3 4 8 8 2 2 2 7 4 5 7 5 1 3 6 4 3 3 3 2 1 1 1 2 2 2 2 2 2 3 3 3 3 3 3 3 3 3 2 2 2 2 2 2
5 6 10 6 1 3 3 7 3 3 4 3 4 5 4 4 3 3 2 2 1 1 2 2 2 2 2 2 3 3 3 2 2 2 2 3 2 2 2 2 1 1 1 2
5 6 11 3 4 6 6 2 2 3 3 3 4 4 4 3 3 2 2 1 0 0 1 1 1 2 2 3 3 2 2 2 2 2 2 1 2 2 2 2 2 1 1 2
10 10 5 4 6 4 2 3 3 3 5 4 4 4 4 3 3 2 2 1 1 0 1 1 1 2 2 3 1 1 1 2 2 1 1 1 2 2 1 2 1 1 1 2
6 9 7 6 5 5 4 4 4 4 4 4 4 4 4 3 3 2 2 2 1 1 1 2 1 0 1 2 1 1 1 1 1 1 1 1 1 1 2 2 2 2 2 2
7 7 6 6 6 6 5 4 3 4 3 3 3 4 4 3 3 3 2 2 1 1 1 2 1 1 1 1 1 1 1 1 1 1 1 1 1 1 2 3 3 3 3 2
9 7 6 6 4 4 4 5 4 4 4 3 3 3 3 3 3 2 2 1 1 1 1 2 1 2 2 1 1 1 1 1 1 1 1 1 1 1 2 3 4 5 4 4
7 4 4 5 4 3 4 5 4 3 3 4 3 2 3 3 2 2 2 1 2 2 2 1 1 2 2 1 1 1 2 1 1 1 1 1 1 1 1 2 3 3 4 4
5 3 4 5 4 3 3 3 2 2 2 2 2 2 2 2 2 2 2 2 2 1 1 1 1 2 2 1 1 2 2 2 1 1 1 1 1 1 1 1 2 2 3 4
4 4 5 4 3 3 2 1 1 2 2 2 1 2 2 2 3 3 2 1 0 1 1 1 2 3 2 1 1 1 1 1 1 1 1 1 1 1 1 1 1 2 2 3
3 2 3 3 4 3 2 1 2 3 2 2 2 2 2 2 2 2 2 1 0 1 2 2 3 3 1 1 1 1 1 2 1 1 1 1 1 1 1 1 1 1 2 2
2 3 3 3 4 3 3 3 3 3 2 3 3 2 2 1 1 2 2 1 1 2 3 3 3 3 1 1 1 1 1 2 2 1 1 1 1 1 1 1 1 2 2 3
4 5 4 5 4 4 4 3 3 2 2 2 2 1 1 1 2 2 2 2 1 2 3 3 2 2 2 1 1 1 1 1 1 1 1 1 1 1 1 1 2 2 2 3
2 3 3 3 3 3 3 3 3 2 2 1 1 2 2 2 2 2 1 1 1 3 3 3 3 2 2 2 1 1 1 1 1 1 1 2 2 1 1 2 2 2 2 2
2 2 2 2 2 1 2 2 1 2 2 1 1 1 2 2 2 2 1 2 3 3 3 3 2 2 2 2 2 1 1 2 2 1 1 1 2 2 2 2 2 3 3 3
2 1 1 2 2 2 2 1 1 1 2 1 1 2 2 2 2 1 1 3 3 3 3 3 2 2 2 2 2 1 1 2 2 2 2 2 2 2 2 2 3 3 3 3
2 1 2 2 1 2 2 1 1 1 1 1 1 1 1 2 2 2 2 3 3 4 2 1 2 3 3 1 0 1 1 2 2 2 2 2 2 3 3 3 3 3 3 3
2 1 1 1 1 2 2 2 1 1 1 2 2 2 2 2 2 2 3 3 2 4 2 2 3 4 3 1 0 1 1 2 2 2 2 3 3 3 3 3 3 3 3 3
1 1 1 1 0 1 1 2 2 1 1 2 2 2 2 2 2 2 2 4 5 5 2 4 5 4 2 1 1 1 1 2 2 2 3 3 3 3 3 3 3 3 3 4
1 1 1 1 0 1 1 2 2 2 1 1 2 2 2 2 2 3 2 3 5 4 2 4 5 4 2 1 1 2 2 2 3 3 3 3 3 3 3 3 3 3 3 3
1 1 1 2 1 1 1 1 1 2 2 2 2 2 2 2 2 2 2 2 3 3 2 2 2 3 1 2 2 2 2 3 3 3 3 3 3 3 3 3 4 4 4 4
1 1 1 1 1 1 1 1 2 2 2 2 3 3 2 2 2 2 2 2 2 2 2 2 2 2 2 2 2 2 2 2 3 3 3 3 3 3 4 4 4 4 3 4
Wind_Direction
257 273 244 240 239 215 213 215 222 247 252 267 272 267 269 268 272 278 277 262 243 234 229 217 207 214 219 233 226 200 204 212 223 223 222 213 193 197 197 196 229 224 206 232
277 274 267 268 252 229 233 232 237 257 268 268 277 271 267 263 261 264 266 259 253 241 233 223 210 214 216 235 231 203 213 230 229 219 220 223 213 204 196 202 230 226 224 229
258 295 332 272 236 210 215 219 210 237 254 285 285 270 261 259 258 256 258 251 242 236 227 224 218 213 224 239 228 216 223 232 229 218 222 229 222 212 212 216 215 236 243 244
243 34 243 247 211 201 221 247 235 248 268 269 266 276 275 258 248 257 259 255 254 247 238 239 230 218 217 213 207 224 234 239 237 223 227 227 218 219 220 216 221 232 243 248
172 231 272 287 251 186 211 269 242 243 266 286 304 321 300 271 249 252 257 262 254 232 227 225 222 217 205 212 217 231 241 245 242 231 229 222 223 226 216 209 228 237 236 235
171 205 246 258 248 179 146 279 274 246 264 283 329 295 287 307 299 286 283 263 224 202 211 225 236 206 196 217 227 243 247 250 245 231 222 220 223 222 213 208 223 235 249 242
204 228 260 262 219 127 180 255 299 262 263 254 236 250 283 311 310 297 286 279 249 193 213 233 229 198 214 225 241 253 260 262 254 237 229 223 224 215 201 207 208 221 242 258
180 211 252 226 148 189 225 271 286 278 268 260 273 294 305 306 301 306 308 305 279 190 249 252 213 190 220 244 252 258 263 261 256 251 247 230 202 210 200 192 200 219 236 271
196 217 247 194 211 234 254 268 276 278 281 267 277 287 294 300 297 294 281 285 299 225 275 293 241 188 221 259 253 234 248 258 257 262 249 232 202 201 193 190 202 232 234 258
245 259 258 256 259 265 257 257 272 279 280 271 269 273 288 293 294 290 280 276 256 214 257 293 301 248 225 254 245 197 242 268 263 247 255 243 226 207 204 210 216 231 237 251
252 270 290 271 247 252 266 276 286 294 283 264 255 273 278 284 287 282 276 270 238 222 243 275 303 297 280 254 190 206 239 255 264 249 238 249 251 234 236 231 230 235 235 233
233 234 224 259 266 249 260 276 280 290 299 293 261 263 278 282 283 280 276 275 266 253 252 269 278 292 296 265 179 189 248 261 257 239 237 248 280 311 292 274 270 265 262 262
243 255 247 272 283 259 254 268 275 267 262 280 284 268 273 281 288 287 281 272 254 253 256 267 285 295 296 269 198 201 229 252 257 251 246 259 260 267 297 312 299 286 275 275
246 249 267 262 263 270 262 270 282 288 283 277 278 290 287 291 299 290 276 267 264 264 270 272 285 285 285 250 214 222 235 246 239 229 245 262 261 260 258 271 297 305 301 296
248 234 243 268 283 286 282 283 302 300 309 316 307 294 285 283 285 285 288 293 325 318 296 296 287 283 278 225 213 222 234 235 228 223 236 256 266 265 269 274 284 299 316 313
277 270 255 257 262 268 269 249 252 273 284 289 294 294 290 282 284 290 295 272 205 265 277 283 282 287 276 221 229 245 249 256 261 251 240 254 264 261 263 262 279 293 297 299
219 255 256 264 268 266 253 243 240 250 265 276 282 297 312 315 311 306 300 290 262 267 273 272 277 290 279 233 225 242 246 247 255 268 244 247 254 261 264 260 269 280 284 289
234 239 237 236 243 254 261 254 252 256 258 272 294 308 296 270 266 276 288 309 323 313 299 285 283 284 266 240 224 226 228 236 236 238 247 254 263 263 262 265 269 277 289 294
258 259 265 260 252 241 247 253 257 261 268 267 264 270 273 272 274 285 300 311 293 294 297 295 302 306 276 256 252 211 222 230 241 253 258 270 285 278 269 267 269 272 277 283
279 272 276 282 280 248 252 265 265 270 273 249 255 287 299 297 297 302 302 275 266 270 285 293 292 277 269 263 270 213 217 224 234 251 259 255 257 262 266 268 269 271 271 270
279 279 283 287 299 299 276 262 253 273 288 262 234 252 273 293 302 295 284 285 290 291 297 301 309 282 268 269 269 204 215 226 234 242 251 257 261 264 264 266 269 271 269 267
266 264 274 282 293 308 313 309 267 263 290 291 284 282 293 303 311 307 276 262 285 301 312 293 283 283 291 298 192 213 220 230 240 245 248 253 256 261 262 262 265 267 267 264
274 268 274 279 280 300 322 321 292 260 259 261 263 269 273 277 276 274 288 290 294 299 313 288 293 301 319 36 213 232 242 245 248 250 252 253 255 259 263 263 263 264 264 264
305 312 304 301 357 21 326 320 325 312 284 280 272 263 261 282 293 273 269 294 302 305 303 295 305 317 346 14 305 267 261 259 258 258 258 258 256 257 261 262 264 264 262 263
310 314 324 341 332 292 287 311 325 318 311 304 296 288 275 253 257 282 290 289 293 308 307 301 308 324 340 315 289 275 267 261 260 259 255 260 264 267 268 265 261 263 265 266
295 288 284 274 264 270 282 289 296 297 304 308 310 307 307 300 282 280 286 290 291 303 310 307 309 314 307 290 281 276 272 282 288 280 269 269 269 269 271 272 271 266 264 265
305 296 303 311 309 285 270 274 280 286 284 282 294 301 306 307 304 300 298 299 300 300 299 300 298 293 289 285 281 278 273 271 269 269 269 269 269 269 270 271 274 274 271 268